TimeCST,TemperatureF,Dew PointF,Humidity,Sea Level PressureIn,VisibilityMPH,Wind Direction,Wind SpeedMPH,Gust SpeedMPH,PrecipitationIn,Events,Conditions,WindDirDegrees,DateUTC
12:10 AM,32.0,24.8,75,30.07,10.0,South,10.4,-,N/A,,Overcast,170,2013-12-13 06:10:00
12:30 AM,35.6,26.6,70,30.06,10.0,South,8.1,-,N/A,,Overcast,180,2013-12-13 06:30:00
12:50 AM,37.4,26.6,65,30.05,10.0,South,12.7,-,N/A,,Overcast,180,2013-12-13 06:50:00
1:10 AM,39.2,26.6,61,30.03,9.0,SSW,20.7,25.3,N/A,,Overcast,200,2013-12-13 07:10:00
1:30 AM,41.0,26.6,57,30.02,10.0,South,20.7,29.9,N/A,,Overcast,190,2013-12-13 07:30:00
1:50 AM,41.0,26.6,57,30.01,10.0,South,18.4,-,N/A,,Overcast,190,2013-12-13 07:50:00
2:10 AM,41.0,26.6,57,30.01,10.0,SSW,15.0,-,N/A,,Overcast,200,2013-12-13 08:10:00
2:30 AM,41.0,28.4,61,30.01,10.0,SSW,11.5,-,N/A,,Overcast,210,2013-12-13 08:30:00
2:50 AM,41.0,28.4,61,29.99,10.0,South,18.4,-,N/A,,Mostly Cloudy,190,2013-12-13 08:50:00
3:10 AM,41.0,28.4,61,29.97,10.0,South,18.4,-,N/A,,Mostly Cloudy,170,2013-12-13 09:10:00
3:30 AM,41.0,28.4,61,29.95,10.0,South,20.7,24.2,N/A,,Mostly Cloudy,180,2013-12-13 09:30:00
3:50 AM,41.0,28.4,61,29.94,10.0,South,17.3,-,N/A,,Mostly Cloudy,190,2013-12-13 09:50:00
4:10 AM,41.0,28.4,61,29.94,10.0,SSW,13.8,17.3,N/A,,Overcast,200,2013-12-13 10:10:00
4:30 AM,41.0,28.4,61,29.93,10.0,SSW,10.4,-,N/A,,Overcast,200,2013-12-13 10:30:00
4:50 AM,41.0,28.4,61,29.93,10.0,SSW,10.4,-,N/A,,Overcast,210,2013-12-13 10:50:00
5:10 AM,41.0,28.4,61,29.91,10.0,South,17.3,-,N/A,,Overcast,190,2013-12-13 11:10:00
5:30 AM,41.0,28.4,61,29.91,10.0,South,10.4,-,N/A,,Mostly Cloudy,190,2013-12-13 11:30:00
5:50 AM,41.0,28.4,61,29.90,10.0,South,15.0,-,N/A,,Mostly Cloudy,190,2013-12-13 11:50:00
6:10 AM,39.2,28.4,65,29.89,10.0,SSW,20.7,-,N/A,,Scattered Clouds,200,2013-12-13 12:10:00
6:30 AM,39.2,28.4,65,29.88,10.0,SSW,16.1,-,N/A,,Mostly Cloudy,200,2013-12-13 12:30:00
6:50 AM,37.4,30.2,75,29.88,10.0,SSW,15.0,-,N/A,,Scattered Clouds,200,2013-12-13 12:50:00
7:10 AM,39.2,30.2,70,29.87,10.0,South,17.3,-,N/A,,Mostly Cloudy,190,2013-12-13 13:10:00
7:30 AM,39.2,32.0,75,29.87,10.0,SSW,18.4,-,N/A,,Overcast,200,2013-12-13 13:30:00
7:50 AM,39.2,32.0,75,29.86,10.0,SSW,17.3,-,N/A,,Overcast,200,2013-12-13 13:50:00
8:10 AM,41.0,32.0,70,29.86,8.0,SSW,15.0,-,N/A,,Overcast,200,2013-12-13 14:10:00
8:30 AM,41.0,32.0,70,29.85,8.0,SSW,19.6,25.3,N/A,,Mostly Cloudy,200,2013-12-13 14:30:00
8:50 AM,41.0,32.0,70,29.85,8.0,South,19.6,-,N/A,,Partly Cloudy,190,2013-12-13 14:50:00
9:10 AM,41.0,32.0,70,29.84,9.0,South,17.3,-,N/A,,Clear,190,2013-12-13 15:10:00
9:30 AM,42.8,32.0,66,29.85,9.0,South,17.3,23.0,N/A,,Clear,190,2013-12-13 15:30:00
9:50 AM,44.6,32.0,61,29.85,8.0,SSW,23.0,-,N/A,,Clear,200,2013-12-13 15:50:00
10:10 AM,44.6,32.0,61,29.84,9.0,SSW,20.7,25.3,N/A,,Clear,200,2013-12-13 16:10:00
10:30 AM,44.6,32.0,61,29.83,9.0,SSW,19.6,25.3,N/A,,Clear,200,2013-12-13 16:30:00
10:50 AM,44.6,32.0,61,29.82,9.0,SSW,17.3,21.9,N/A,,Clear,200,2013-12-13 16:50:00
11:10 AM,46.4,32.0,57,29.81,10.0,SSW,21.9,-,N/A,,Clear,200,2013-12-13 17:10:00
11:30 AM,48.2,32.0,54,29.80,10.0,SSW,21.9,28.8,N/A,,Clear,210,2013-12-13 17:30:00
11:50 AM,50.0,33.8,54,29.78,9.0,SSW,19.6,-,N/A,,Clear,200,2013-12-13 17:50:00
12:10 PM,50.0,33.8,54,29.77,10.0,SSW,18.4,26.5,N/A,,Clear,210,2013-12-13 18:10:00
12:30 PM,51.8,33.8,50,29.76,10.0,SSW,16.1,21.9,N/A,,Clear,210,2013-12-13 18:30:00
12:50 PM,51.8,33.8,50,29.75,9.0,SW,16.1,-,N/A,,Partly Cloudy,220,2013-12-13 18:50:00
1:10 PM,51.8,33.8,50,29.74,10.0,SW,17.3,-,N/A,,Partly Cloudy,220,2013-12-13 19:10:00
1:30 PM,51.8,35.6,54,29.73,10.0,SW,13.8,-,N/A,,Partly Cloudy,230,2013-12-13 19:30:00
1:50 PM,53.6,35.6,51,29.72,10.0,SSW,12.7,18.4,N/A,,Partly Cloudy,210,2013-12-13 19:50:00
2:10 PM,53.6,35.6,51,29.71,10.0,SW,10.4,-,N/A,,Clear,220,2013-12-13 20:10:00
2:30 PM,55.4,35.6,47,29.71,10.0,SW,12.7,-,N/A,,Clear,230,2013-12-13 20:30:00
2:50 PM,55.4,35.6,47,29.70,10.0,West,8.1,-,N/A,,Clear,260,2013-12-13 20:50:00
3:10 PM,55.4,35.6,47,29.70,10.0,West,6.9,-,N/A,,Clear,260,2013-12-13 21:10:00
3:30 PM,55.4,35.6,47,29.70,10.0,West,3.5,-,N/A,,Clear,260,2013-12-13 21:30:00
3:50 PM,55.4,35.6,47,29.70,10.0,South,5.8,-,N/A,,Clear,190,2013-12-13 21:50:00
4:10 PM,55.4,35.6,47,29.70,10.0,WSW,4.6,-,N/A,,Clear,240,2013-12-13 22:10:00
4:30 PM,53.6,35.6,51,29.71,10.0,SW,5.8,-,N/A,,Clear,220,2013-12-13 22:30:00
4:50 PM,50.0,35.6,58,29.72,10.0,SW,4.6,-,N/A,,Clear,220,2013-12-13 22:50:00
5:10 PM,48.2,33.8,58,29.72,10.0,South,5.8,-,N/A,,Clear,180,2013-12-13 23:10:00
5:30 PM,46.4,33.8,62,29.72,10.0,South,6.9,-,N/A,,Clear,170,2013-12-13 23:30:00
5:50 PM,44.6,33.8,66,29.73,10.0,SSE,6.9,-,N/A,,Scattered Clouds,160,2013-12-13 23:50:00
6:10 PM,44.6,35.6,71,29.75,10.0,WSW,6.9,16.1,N/A,,Mostly Cloudy,250,2013-12-14 00:10:00
6:30 PM,46.4,35.6,66,29.76,10.0,SW,5.8,-,N/A,,Mostly Cloudy,230,2013-12-14 00:30:00
6:50 PM,42.8,28.4,57,29.76,10.0,NW,9.2,-,N/A,,Mostly Cloudy,310,2013-12-14 00:50:00
7:10 PM,41.0,28.4,61,29.77,10.0,NW,9.2,-,N/A,,Mostly Cloudy,320,2013-12-14 01:10:00
7:30 PM,41.0,28.4,61,29.77,10.0,NW,9.2,-,N/A,,Overcast,310,2013-12-14 01:30:00
7:50 PM,41.0,28.4,61,29.78,10.0,NNW,5.8,-,N/A,,Overcast,340,2013-12-14 01:50:00
8:10 PM,39.2,32.0,75,29.79,10.0,North,11.5,-,N/A,,Overcast,360,2013-12-14 02:10:00
8:30 PM,39.2,32.0,75,29.80,10.0,North,12.7,-,N/A,,Mostly Cloudy,10,2013-12-14 02:30:00
8:50 PM,39.2,32.0,75,29.81,9.0,NNE,13.8,-,N/A,,Scattered Clouds,20,2013-12-14 02:50:00
9:10 PM,37.4,33.8,87,29.82,8.0,North,12.7,18.4,N/A,,Partly Cloudy,360,2013-12-14 03:10:00
9:30 PM,37.4,32.0,81,29.84,8.0,North,13.8,-,N/A,,Clear,360,2013-12-14 03:30:00
9:50 PM,37.4,32.0,81,29.84,8.0,North,15.0,-,N/A,,Clear,360,2013-12-14 03:50:00
10:10 PM,37.4,30.2,75,29.86,9.0,North,15.0,-,N/A,,Partly Cloudy,360,2013-12-14 04:10:00
10:30 PM,35.6,28.4,75,29.87,8.0,North,16.1,21.9,N/A,,Scattered Clouds,360,2013-12-14 04:30:00
10:50 PM,35.6,28.4,75,29.88,7.0,North,16.1,-,N/A,,Mostly Cloudy,360,2013-12-14 04:50:00
11:10 PM,35.6,28.4,75,29.90,7.0,North,15.0,20.7,N/A,,Overcast,360,2013-12-14 05:10:00
11:30 PM,33.8,28.4,81,29.91,7.0,North,16.1,23.0,N/A,,Overcast,360,2013-12-14 05:30:00
11:50 PM,32.0,26.6,80,29.92,7.0,North,15.0,20.7,N/A,,Overcast,350,2013-12-14 05:50:00